STARLINK-32509, 62042

Orbit data source: Space-Track

STARLINK-32509, 62042 is a payload satellite owned by SpaceX/Seattle (US) in LEO that was launched on Thu, 21 Nov 2024 UTC via an FALCON 9 launch vehicle from the Air Force Eastern Test Range (AFETR). Payload-class satellites include a variety of spacecraft equipped with specific instruments for various scientific and technological missions. These include communications satellites like Starlink; space stations such as the ISS; scientific satellites like the Hubble; Earth observation satellites from companies like Planet Labs, Umbra, and HawkEye 360; GPS; miniature CubeSats for education and research; and military/defense satellites.

Loading next visibility...
Identifier
62042, 2024-216L
Orbit
LEO
Country
Flag of USUS
Related business
Manufacturer
SpaceX/Seattle
Mission
Operational Commercial Communications
Bus & Motor
STARLINK V2M, Unknown motor
Mass
730 kg wet, ~700 kg dry
Launch date (UTC)
2024-11-21 (1 year ago)
Launch vehicle
FALCON 9
Launch site
Air Force Eastern Test Range (AFETR)
Object type
Payload
Rocket body
Debris
Shape & HBR
Box + 2 Pan, 17.7 m
Radar Cross Section
33.884 m², Large (>1 m²)

Expand to show TLE details & history
Last TLE update: 14 hours ago

TLE from 14 hours ago
0 STARLINK-32509
1 62042U 24216L   26037.55502486  .00042671  00000-0  15499-2 0  9992
2 62042  43.0048  72.1890 0001460 274.9393  85.1292 15.27608613 69113
Epoch: 2026-02-06T13:19Z
TLE epoch observation values (Epoch: 2026-02-06T13:19:14.147Z)
Latitude
-0.00004°
Longitude
95.68879°
Altitude
482.654 km
Speed
7.626 km/s
True Right ascension
04h 48m 45s
True Declination
0° 00' 00"
Sunlit
Object was in daylight at epoch
Visualization orbit readout
Latitude
Unknown
Longitude
Unknown
Altitude
Unknown
Speed
Unknown
Apparent Right ascension
Unknown
Apparent Declination
Unknown
Sunlit
N/A
Visualization observer readout
Local Sidereal Time
05:41:26
Azimuth
Unknown
Elevation
Unknown
Doppler factor
Unknown
Orbital elements
Apogee altitude
485.91 km
Perigee altitude
483.906 km
Semi-major axis
6,863.045 km
Eccentricity
0.00015
Inclination
43.0048°
RAAN
72.189°
Arg. of periapsis
274.9393°
True anomaly
85.14587°
Mean anomaly
85.1292°
Eccentric anomaly
85.13754°
Mean motion
3.8174 °/min
Orbital period
94.3 mins
BSTAR
0.0015499
Loading maneuver chart data...
Computing Atmospheric mass density...
Loading historical data...
Loading historical data...
Loading historical data...
Loading historical data...
Loading historical data...
Loading historical data...
Loading historical data...

Documentation

Showing up to 5 results
|